Location: Noordwijk
(52.2400°N, 4.4500°E)
Time: 13:16:48
(UTC+00:00)

AO-85 - Pass Details

Date: 07 December 2022
Orbit: 516 x 753 km, 64.8° (Epoch: 04 January)

Event Time Altitude Azimuth Distance (km) Brightness Sun altitude
Rises 18:39:24 0° 306° (NW) 2,828 ? -27.7°
Reaches altitude 10° 18:42:33 10° 330° (NNW) 1,877 ? -28.1°
Enters shadow 18:43:23 13° 340° (NNW) 1,703 ? -28.3°
